GFSSW_850_thetae_273.txt.gz
Theta_e
299 299 300 300 300 300 300 301 301 301 301 301 301 301 302 302 302 301 302 304 304 305 306 307 306 304 304 305 311 321 322 324 325 326 327 319 318 317 315 315 315 318 315 315 315
299 299 299 300 300 300 300 301 301 301 301 301 301 301 301 302 302 302 302 303 302 305 308 307 309 305 305 308 313 320 320 324 319 317 316 317 318 316 315 312 312 312 312 313 312
299 299 299 300 300 300 300 300 301 301 301 301 301 301 301 302 301 302 302 302 302 308 309 306 311 307 308 314 318 318 320 317 312 312 311 315 316 314 313 312 313 312 311 311 311
299 299 299 300 300 300 300 301 301 301 301 301 301 301 301 301 304 303 302 302 303 309 310 310 312 313 314 314 316 316 316 313 311 310 309 310 311 313 313 315 315 316 317 314 311
300 300 300 300 300 300 300 301 301 301 301 301 301 300 300 300 302 303 302 303 305 309 311 310 311 312 313 314 315 314 313 310 308 308 308 307 307 310 310 314 313 312 313 313 312
301 301 301 301 301 301 301 301 301 301 301 300 300 300 299 300 302 303 302 303 307 308 309 308 311 313 312 310 313 309 309 308 307 307 306 305 307 307 312 316 313 313 312 310 310
302 302 303 304 303 302 302 302 302 301 300 300 300 299 299 301 301 302 302 302 304 306 308 309 309 312 311 309 307 307 308 308 306 305 305 304 308 304 313 312 314 313 311 311 309
306 308 310 312 306 303 302 302 302 301 300 300 299 299 300 302 301 300 301 302 303 304 305 307 309 308 308 308 305 306 307 311 307 303 304 305 313 310 308 308 310 309 310 310 309
311 312 313 314 302 305 302 302 302 301 300 299 299 299 300 301 300 300 301 302 302 302 304 305 306 306 305 306 307 307 308 309 309 303 303 303 307 306 306 306 306 307 307 308 308
315 315 315 315 312 308 304 303 302 301 300 299 299 300 299 300 300 300 300 301 302 301 302 303 304 303 303 305 307 307 307 307 307 304 302 302 302 303 305 304 304 306 307 305 307
315 315 316 315 315 310 311 305 303 305 303 301 302 301 302 300 300 300 300 301 302 302 302 303 301 300 302 303 304 303 303 303 304 302 302 302 301 302 303 303 303 304 305 305 305
315 315 315 315 315 312 313 311 302 301 301 303 301 302 300 299 300 299 300 301 302 300 302 301 299 302 302 302 303 302 302 302 303 302 301 302 301 304 304 304 305 305 304 306 306
315 315 316 315 315 314 313 313 310 301 300 303 301 300 299 298 299 300 300 301 301 302 300 300 301 301 302 302 302 302 302 304 304 304 302 301 302 304 306 304 305 306 306 307 308
314 313 313 315 314 314 313 314 311 300 298 304 299 299 298 299 299 300 300 301 301 301 301 301 300 300 300 302 302 302 301 303 303 304 302 304 303 304 307 307 305 305 306 307 308
313 314 314 313 313 314 313 314 311 306 306 303 299 299 300 299 300 300 299 300 300 300 300 300 298 299 301 301 301 302 301 303 303 303 304 304 302 303 304 308 308 304 306 307 308
312 312 312 312 313 314 314 314 310 303 303 301 299 299 299 299 300 299 300 301 301 300 300 299 298 299 300 298 299 299 301 302 302 302 303 302 303 303 308 309 307 307 307 308 307
296 301 307 310 312 314 314 313 312 305 303 301 297 299 299 300 299 300 300 299 298 295 299 300 298 297 298 298 298 300 301 306 307 303 305 302 303 304 306 306 307 305 306 307 307
296 294 295 308 312 313 312 308 317 305 301 303 299 300 299 299 299 299 300 298 298 302 298 299 300 296 296 298 298 298 302 305 305 314 313 302 305 308 306 305 306 306 306 306 306
295 295 294 294 306 311 312 312 315 313 310 304 299 300 295 301 299 299 297 297 299 299 301 301 305 297 296 296 298 299 301 302 302 297 303 303 303 305 305 304 303 304 305 305 305
294 294 293 294 298 308 307 312 311 312 304 303 306 300 296 296 296 298 298 298 302 299 299 303 301 297 296 296 297 298 299 301 300 299 304 307 305 307 309 306 303 303 303 305 305
293 296 299 302 303 306 306 306 307 311 310 308 310 308 304 305 298 297 299 301 301 300 298 295 301 298 295 294 296 296 298 299 301 305 308 309 307 303 306 306 304 302 304 305 305
293 292 299 300 300 301 304 300 306 307 310 309 307 311 308 305 303 302 301 303 301 299 300 299 298 297 296 296 295 296 298 300 302 303 303 307 306 305 307 305 304 304 306 307 306
292 294 294 299 301 302 301 301 304 306 305 304 306 307 310 312 310 305 303 304 300 299 300 301 299 295 298 296 293 293 297 299 300 300 300 303 305 302 305 306 306 305 307 306 306
292 291 295 295 298 299 300 301 303 303 303 305 305 304 306 309 310 310 307 301 299 300 301 300 303 298 305 302 294 292 294 297 297 297 302 305 306 306 305 305 305 306 307 307 307
292 291 292 290 296 296 297 299 299 301 302 302 305 306 306 308 309 310 307 306 298 299 298 300 303 302 303 303 297 297 293 296 299 302 302 305 303 304 305 304 304 306 308 307 307
291 292 292 293 294 292 295 299 299 299 298 299 303 304 304 306 307 307 306 305 306 298 300 297 301 299 301 301 302 304 301 297 299 300 301 302 301 303 303 304 303 306 307 307 307
291 290 291 291 290 291 289 293 295 293 295 299 299 300 300 301 298 299 302 304 304 300 300 297 300 303 308 304 301 303 303 302 299 298 301 301 303 302 302 301 303 305 306 306 306

GFSSW_850_thetae_276.txt.gz
Theta_e
299 300 299 300 300 300 300 301 301 301 301 301 301 301 301 302 301 301 302 302 305 303 304 306 307 306 304 306 310 317 321 322 322 324 324 322 318 316 317 318 319 318 318 319 318
299 299 299 299 299 300 300 300 301 301 301 301 301 301 301 302 302 302 303 302 303 302 304 308 308 306 304 305 308 319 319 321 319 315 316 314 316 314 314 312 312 314 315 316 316
299 299 299 299 299 300 300 300 301 301 301 301 301 301 301 301 301 303 303 302 302 302 307 308 309 306 306 309 315 316 319 318 314 312 311 311 315 315 312 310 314 315 315 314 313
300 300 300 300 300 300 300 300 300 301 301 301 301 301 300 300 301 304 303 302 302 303 309 307 310 308 312 311 315 316 315 316 313 311 311 310 309 311 312 316 318 317 317 314 313
301 301 301 302 302 302 301 301 301 301 300 300 300 300 300 300 302 302 303 302 303 306 309 309 308 312 313 313 313 314 313 311 310 309 308 309 307 308 309 315 313 315 313 314 314
303 304 306 308 309 305 303 302 302 301 301 300 300 300 299 298 302 302 302 302 303 307 310 309 308 310 312 312 312 310 309 309 308 308 307 305 307 308 312 317 312 311 312 312 313
309 310 312 313 311 303 302 302 302 302 301 300 300 299 299 301 302 301 301 301 302 306 308 310 309 309 310 309 308 307 309 308 306 306 305 304 308 304 312 315 315 313 313 312 312
313 313 314 315 315 305 308 302 302 302 301 300 299 299 299 301 301 301 301 301 302 303 305 307 309 308 308 307 306 308 306 311 308 303 304 307 312 311 309 309 310 313 313 311 312
315 315 315 315 315 310 311 311 304 301 299 299 299 299 300 300 301 300 300 301 302 302 303 305 306 306 305 306 306 306 308 308 310 303 303 304 308 308 305 304 306 308 311 311 311
315 315 315 315 316 314 313 314 304 303 300 299 299 300 300 300 300 300 300 301 301 301 302 303 303 302 302 305 310 307 307 307 308 304 302 301 302 304 305 305 303 305 306 308 308
315 315 315 315 315 315 314 313 310 304 303 304 302 301 301 301 300 299 300 300 301 301 300 302 299 300 303 303 304 304 304 303 303 302 302 301 302 304 304 302 301 303 305 305 307
314 314 314 315 315 315 315 314 312 308 302 311 307 301 300 300 299 299 299 300 301 299 300 299 298 299 301 301 302 302 302 301 302 302 301 301 301 303 304 303 303 304 304 304 306
313 314 314 314 314 314 314 314 314 305 300 304 302 301 300 300 299 299 299 300 299 299 299 298 300 300 301 301 301 301 301 302 303 303 301 300 302 303 304 303 305 305 305 305 306
312 311 313 313 314 314 314 314 314 303 296 304 299 299 299 298 298 300 299 300 300 299 299 298 299 300 300 301 300 301 301 303 303 303 301 303 302 303 306 306 305 306 305 305 306
299 305 310 311 311 312 313 314 313 306 309 304 298 298 298 299 299 298 299 300 299 299 299 299 298 299 300 300 299 300 301 302 302 302 302 302 302 301 303 307 307 305 306 308 307
296 296 296 303 309 311 312 314 312 309 309 301 298 297 298 298 299 298 299 300 300 299 299 298 298 298 299 297 299 299 300 301 301 300 301 300 301 300 305 307 308 306 307 307 307
294 295 295 295 299 310 312 313 311 316 303 302 297 298 298 298 298 298 298 298 298 295 298 299 298 297 297 297 298 300 299 303 303 299 303 301 301 303 304 305 306 307 307 308 308
294 294 293 293 294 306 309 308 313 312 302 302 299 298 298 298 298 298 298 296 296 300 295 298 299 296 296 297 298 298 299 303 302 307 308 301 304 306 305 304 305 307 307 307 307
294 293 293 293 293 302 307 310 310 310 310 303 299 299 293 299 298 297 297 296 297 298 300 297 301 296 296 296 297 298 300 301 302 296 301 303 302 303 305 302 303 302 304 305 306
293 292 292 295 293 301 304 306 305 308 306 301 307 302 297 295 298 298 297 297 299 297 296 300 301 296 296 296 296 297 298 300 299 298 301 304 304 305 307 306 302 302 301 304 305
293 292 293 297 298 301 303 304 302 306 311 309 310 309 304 302 299 299 301 300 298 299 298 295 300 297 295 295 297 296 298 297 298 302 304 306 306 302 304 305 303 301 303 305 305
293 289 293 294 298 300 301 299 303 303 306 307 308 311 312 308 303 306 305 303 300 300 302 301 301 296 295 295 295 296 298 299 300 301 302 306 306 305 303 304 302 304 305 305 305
292 291 292 291 293 298 300 301 301 302 303 304 307 308 309 310 309 304 303 302 300 300 302 301 302 297 297 295 293 293 296 298 299 300 300 303 305 302 304 305 305 305 307 307 306
290 291 292 293 293 295 296 299 300 301 301 302 303 304 305 308 309 308 308 304 299 301 303 304 303 305 307 300 294 292 292 297 297 297 303 304 305 306 304 304 303 305 307 307 308
290 291 290 283 288 294 294 295 296 297 298 300 301 301 302 304 305 306 307 300 299 301 300 303 304 305 306 301 296 297 292 296 299 301 301 304 302 302 302 302 302 304 305 307 307
289 289 291 291 291 290 290 293 293 294 296 296 298 297 299 302 303 304 305 307 308 299 300 299 306 302 306 305 304 304 303 295 298 299 300 301 300 302 301 302 301 303 305 305 306
288 289 288 289 286 287 289 291 291 292 292 293 294 294 294 297 297 296 296 298 301 302 301 299 302 301 307 306 306 304 304 304 301 297 299 300 301 302 301 301 302 304 304 305 306

GFSSW_850_thetae_279.txt.gz
Theta_e
299 299 300 300 300 300 300 300 301 301 301 301 301 302 302 302 302 302 303 303 303 304 303 303 306 306 306 306 310 315 319 322 325 323 324 321 319 320 321 321 321 320 320 320 318
299 299 299 300 300 300 300 300 301 301 301 301 301 301 301 302 302 303 303 303 302 303 303 305 307 307 304 305 308 317 317 321 320 318 317 312 315 316 313 312 313 317 319 319 317
300 300 300 300 300 300 301 301 300 300 301 300 300 300 300 301 301 303 304 302 302 302 302 306 307 306 304 306 310 313 319 317 316 313 312 310 312 313 311 310 313 319 321 316 315
301 302 302 304 305 304 303 302 301 301 301 301 300 300 300 300 300 305 303 302 302 302 302 308 307 306 308 309 311 315 315 316 315 313 311 310 310 308 311 316 317 317 318 317 315
304 306 307 310 313 305 303 303 302 301 301 301 300 300 300 299 301 302 302 302 302 302 306 308 309 310 312 311 312 313 312 313 313 311 309 309 307 309 310 316 316 315 315 315 317
310 311 312 314 314 312 306 305 302 302 301 301 300 299 298 297 301 301 302 302 302 303 307 308 310 310 308 310 311 310 311 310 310 308 307 306 306 307 313 316 317 313 314 315 315
314 314 314 315 315 315 308 309 310 305 301 301 300 299 298 301 301 301 301 301 301 303 306 309 308 309 309 309 308 306 308 309 307 306 305 304 307 303 311 312 316 314 311 314 314
315 315 315 315 315 315 314 313 314 309 302 300 299 298 298 300 301 300 300 300 301 302 305 306 307 307 308 307 306 308 306 310 309 304 305 307 309 310 309 309 310 312 311 311 312
314 314 315 315 315 315 315 314 314 306 301 299 298 298 299 300 300 300 300 300 301 301 302 304 305 306 305 306 306 305 308 307 309 303 303 305 309 310 307 305 305 308 310 312 311
314 314 314 314 314 315 315 314 310 307 301 299 298 298 300 301 300 300 300 299 301 301 301 303 303 302 300 304 309 307 305 306 308 305 302 301 303 306 307 304 304 306 306 306 310
312 314 314 314 314 314 315 314 312 309 304 304 305 304 302 301 300 300 299 299 301 301 299 301 299 300 304 303 304 304 306 305 303 303 303 301 302 305 305 302 300 302 304 305 307
309 310 312 314 314 314 313 313 313 311 304 313 313 308 303 300 300 299 299 299 300 298 298 298 298 299 300 300 302 303 302 303 302 301 301 300 300 301 302 301 303 303 303 304 305
299 303 308 313 313 313 313 312 313 311 301 308 308 304 303 300 299 299 299 300 298 297 297 296 299 298 298 299 300 299 300 301 302 302 300 300 302 302 303 302 303 304 304 305 305
295 296 296 299 306 312 313 311 313 311 297 305 300 299 299 299 298 299 299 300 298 297 296 297 298 300 299 299 299 299 298 301 302 302 300 301 301 302 303 303 303 304 306 307 306
295 295 295 295 297 306 311 312 313 310 316 305 298 299 298 299 298 298 298 299 298 297 298 299 297 298 299 299 298 299 300 301 301 300 300 301 301 300 302 304 304 305 305 306 307
295 295 295 294 294 299 307 307 310 311 314 303 297 297 297 298 298 298 298 299 299 298 298 298 297 297 298 297 298 298 300 301 299 298 297 299 300 304 302 304 306 307 307 308 308
294 295 295 294 293 297 301 305 310 313 305 303 297 297 297 297 297 298 297 298 298 295 297 298 297 297 297 297 298 298 298 299 297 295 301 299 299 302 302 303 304 305 306 308 308
294 294 293 292 292 292 297 305 309 302 306 302 298 297 297 297 297 298 297 296 296 298 295 297 298 296 295 297 299 298 298 300 298 302 303 300 302 303 302 302 304 305 306 308 307
292 293 294 293 293 292 295 302 303 305 305 304 298 298 293 298 298 297 297 297 297 297 301 297 299 296 296 296 297 298 300 300 301 294 300 303 302 301 303 303 302 302 303 305 306
291 291 292 292 296 294 297 301 301 303 306 300 306 301 301 295 298 298 298 298 299 297 297 299 301 296 295 296 296 297 297 300 297 297 300 302 302 303 304 306 304 302 301 305 305
290 290 291 292 294 295 296 297 297 302 303 308 305 307 304 298 299 298 302 300 298 297 298 297 301 296 295 294 297 296 297 296 297 300 301 303 303 301 302 302 305 302 302 304 305
290 290 291 291 291 293 298 298 299 299 302 302 303 304 307 307 301 299 301 300 299 299 300 301 303 297 296 294 294 295 297 298 299 298 301 304 304 304 302 302 302 304 306 307 307
290 290 289 291 290 287 291 292 293 296 300 299 302 303 304 304 308 308 306 303 301 302 305 301 304 302 302 297 292 292 295 298 299 299 299 302 304 300 301 304 304 304 306 307 307
289 289 290 290 292 291 290 291 293 292 294 298 301 300 301 302 305 306 305 305 299 300 305 304 304 306 309 305 298 297 293 297 299 299 303 303 304 305 304 303 303 304 304 305 307
288 287 289 288 288 287 288 291 292 292 293 293 297 295 294 300 302 303 304 305 300 300 303 306 307 306 306 304 298 301 297 296 299 301 300 304 302 302 301 303 302 302 303 304 306
288 288 288 288 288 289 289 290 290 291 291 290 291 290 292 294 294 299 295 300 303 296 300 300 306 305 309 307 308 306 301 300 299 299 300 300 300 299 299 300 300 301 301 299 299
289 288 288 288 283 285 285 288 290 291 291 291 291 290 290 292 291 292 293 295 296 297 300 300 303 306 308 306 306 304 305 303 299 297 299 299 300 300 300 300 297 295 294 295 296

GFSSW_850_thetae_285.txt.gz
Theta_e
301 301 302 302 302 303 303 302 301 301 300 300 301 301 301 301 301 302 302 303 303 303 302 303 303 304 306 307 309 312 320 326 330 327 329 321 321 322 322 324 321 323 324 324 324
305 306 308 309 310 311 310 304 303 302 301 301 301 300 300 301 301 303 303 303 302 302 302 302 303 306 306 305 306 312 316 323 322 324 324 319 317 318 315 313 317 320 322 323 321
309 310 311 312 313 314 314 307 305 306 302 301 301 301 300 300 301 303 304 304 303 301 302 303 303 307 304 304 305 309 314 315 316 319 320 313 311 314 311 312 317 319 322 322 321
313 313 313 313 314 314 314 314 312 309 311 311 304 301 300 300 299 303 304 303 302 301 301 301 305 306 303 304 305 307 310 313 315 315 313 310 312 311 310 317 319 319 318 318 320
312 313 314 314 314 314 314 315 315 314 314 313 311 304 300 299 300 302 302 302 301 301 301 301 306 307 304 305 307 309 307 310 312 313 313 311 308 310 309 315 315 315 316 317 316
313 314 314 314 314 314 314 314 315 315 315 314 309 304 299 296 302 301 301 301 301 301 301 301 306 307 307 308 309 309 308 308 310 310 309 306 307 307 311 313 313 312 314 315 316
313 313 313 314 314 314 314 314 314 315 315 315 308 300 298 303 303 302 300 300 300 301 301 302 306 307 307 307 308 306 306 306 306 308 307 306 306 304 313 312 311 312 313 313 314
310 310 310 310 312 313 314 314 314 314 315 314 307 300 300 304 301 301 300 299 299 300 301 303 306 305 305 306 306 305 305 308 309 306 307 308 312 310 312 309 309 310 310 311 313
296 296 296 297 298 303 311 314 314 314 314 308 302 299 300 302 301 301 299 299 299 299 300 302 303 304 303 305 306 305 307 306 308 305 303 305 308 308 308 306 306 307 309 310 310
297 296 296 297 297 297 297 309 313 312 307 302 300 299 302 303 302 301 301 299 299 299 300 300 301 300 300 305 305 305 305 304 306 306 302 302 303 304 306 305 305 307 308 309 309
298 298 297 296 295 296 296 303 312 310 303 304 304 304 309 311 309 306 302 299 299 299 297 299 298 299 300 305 302 304 304 305 305 303 303 302 303 304 305 303 302 304 305 306 307
297 297 298 298 298 298 302 307 299 299 298 307 310 312 314 314 306 303 299 299 298 297 295 297 298 298 298 300 302 303 304 303 301 301 301 301 301 302 301 302 303 304 304 304 306
295 295 295 295 295 298 302 302 301 300 300 305 308 310 310 310 306 307 300 298 297 296 296 298 298 296 299 299 301 301 303 303 303 300 298 298 301 302 300 300 302 302 303 303 304
293 293 294 293 295 294 297 300 300 302 304 305 305 305 303 305 301 302 303 301 296 298 295 297 296 296 297 298 299 301 298 301 301 301 299 297 299 301 302 303 300 301 303 305 305
292 291 290 290 290 291 293 293 300 303 300 298 302 300 298 301 298 296 298 298 297 296 297 299 295 296 297 298 298 299 295 297 298 297 298 298 298 300 301 301 301 301 302 303 304
291 288 288 289 289 291 291 292 298 303 303 300 297 296 296 296 297 297 297 298 297 296 296 297 296 296 296 296 296 296 298 298 296 296 297 297 298 304 301 300 301 303 305 306 306
288 288 288 289 291 292 292 292 301 302 296 296 296 296 296 296 296 296 296 296 297 298 299 297 297 296 296 297 297 298 298 299 297 296 301 296 296 303 301 300 299 300 300 305 306
289 288 289 290 291 292 292 292 297 288 292 299 297 296 297 296 296 296 296 295 296 296 296 299 299 296 295 298 299 298 298 300 299 299 300 296 299 301 298 298 300 300 303 305 305
289 289 288 288 290 290 291 291 288 295 294 294 296 298 291 296 296 296 294 294 296 295 298 296 298 295 296 296 298 298 299 298 299 292 300 301 300 300 301 301 300 300 303 304 304
288 288 288 288 289 289 287 291 292 292 292 292 294 297 297 297 296 295 295 295 297 296 296 298 299 296 295 295 295 297 298 299 297 297 298 300 300 302 303 303 301 300 298 301 302
287 289 288 288 287 290 281 282 290 290 291 292 291 293 295 296 298 298 297 296 295 295 296 297 302 296 295 295 297 297 298 297 298 300 302 300 301 297 301 301 299 297 297 298 299
288 283 288 288 286 280 280 288 289 290 290 291 293 292 292 292 293 296 299 300 301 297 297 296 300 299 294 294 293 295 298 298 300 298 298 300 301 299 299 298 297 295 296 297 297
288 288 288 288 280 278 282 286 288 289 290 291 291 291 291 291 291 291 292 292 292 295 303 299 301 294 303 298 293 293 295 298 298 299 299 301 301 297 297 295 294 295 295 295 296
287 283 288 288 288 287 284 284 286 288 289 290 290 291 290 289 290 292 290 291 290 292 296 297 303 302 305 303 294 294 294 297 300 302 303 302 302 299 298 296 294 294 294 294 294
288 285 287 284 285 279 283 287 288 288 288 289 288 290 289 288 289 290 289 289 289 293 292 293 297 305 305 302 297 295 294 296 298 301 302 305 301 299 297 296 293 292 292 293 294
287 287 287 287 286 284 281 285 287 288 286 287 287 289 288 288 289 289 289 289 289 289 290 292 295 298 302 304 307 308 304 296 298 298 300 300 300 298 295 292 291 290 290 289 289
287 287 287 287 285 284 283 287 288 288 288 288 287 288 288 288 289 288 288 289 289 289 289 291 295 294 297 299 303 306 307 297 300 300 301 301 301 297 296 292 290 289 288 288 287

GFSSW_850_thetae_288.txt.gz
Theta_e
305 305 305 306 308 308 310 306 303 303 302 302 301 301 301 301 301 301 301 303 304 303 303 303 304 304 305 308 310 315 324 328 331 333 333 328 331 330 326 329 324 324 326 326 326
311 310 309 311 312 312 313 313 309 306 307 305 303 302 301 301 301 302 304 303 302 302 302 302 302 303 306 307 308 313 316 318 323 327 330 330 329 330 325 325 323 323 322 324 325
311 311 312 313 313 313 314 314 314 314 312 311 312 310 303 301 300 303 303 304 303 301 301 302 302 304 306 305 307 311 314 315 317 320 323 325 325 323 324 328 326 327 326 320 323
312 314 314 314 314 314 314 314 314 314 315 314 314 313 310 300 303 303 304 304 302 302 301 302 303 306 308 307 306 308 310 311 314 316 318 319 320 318 319 324 326 322 321 319 320
313 313 313 313 314 314 314 314 314 314 315 315 315 313 306 301 302 304 303 302 301 301 301 302 305 306 307 307 307 308 308 308 310 312 313 313 314 317 316 315 316 315 315 316 317
308 309 309 310 311 312 314 314 314 314 314 314 315 312 303 301 307 303 301 301 300 300 300 301 304 306 307 309 310 310 310 309 310 310 311 311 312 313 312 312 313 313 313 313 313
296 297 297 298 298 299 301 309 313 314 314 314 314 311 302 309 310 306 301 300 300 300 300 301 302 306 308 309 309 309 310 311 312 311 312 310 313 313 311 312 314 314 314 313 312
297 297 297 297 298 298 298 298 299 310 313 313 313 304 304 311 309 305 301 300 299 299 300 301 302 305 306 307 308 309 309 311 312 311 311 312 317 318 314 313 313 314 314 313 312
297 297 297 297 297 298 298 298 298 300 311 311 305 303 302 306 304 303 300 299 299 299 299 301 303 305 305 308 308 309 308 310 310 310 308 311 315 315 310 310 311 312 311 311 310
297 297 296 297 296 297 297 297 299 305 308 305 302 301 305 305 303 301 300 298 298 298 299 300 302 305 306 308 307 307 308 308 308 310 307 310 310 312 311 309 310 311 311 311 310
294 294 293 293 294 297 297 299 304 305 303 303 304 303 302 304 303 306 304 300 299 299 301 300 303 303 305 306 307 307 307 307 308 307 307 309 311 311 310 309 309 308 308 309 309
292 291 290 291 295 292 297 300 296 294 298 300 303 305 308 310 308 307 302 301 300 302 301 300 302 305 304 305 306 306 306 306 307 306 304 307 307 307 307 308 307 307 307 307 308
288 289 288 289 294 290 296 296 293 295 298 302 302 303 305 306 307 308 303 300 304 302 301 307 309 303 302 303 304 305 306 306 306 305 305 304 306 307 308 308 307 306 306 306 306
289 290 289 288 290 290 293 291 292 295 302 303 304 303 303 307 307 308 306 304 300 305 302 302 307 302 301 302 303 304 305 305 305 305 304 302 305 307 308 307 305 306 305 305 305
288 288 288 289 291 292 291 291 292 298 300 301 302 299 299 301 298 298 300 301 306 300 301 305 300 300 304 304 302 304 303 304 305 305 304 303 302 306 305 306 307 308 307 307 306
289 288 288 289 290 290 290 292 295 303 301 301 298 296 296 299 299 297 297 297 298 301 299 303 297 299 301 298 302 300 301 301 301 302 304 304 303 308 309 309 308 307 306 307 306
289 288 288 287 290 288 290 293 299 300 298 294 293 293 295 298 299 298 298 299 301 303 305 303 300 298 298 299 299 301 302 304 305 305 307 305 303 307 307 307 306 308 308 305 305
288 288 288 288 288 289 289 295 295 292 293 291 292 293 296 298 297 298 299 300 300 299 302 306 306 300 299 302 302 300 303 308 311 310 308 299 303 307 306 306 305 303 303 304 305
288 288 288 288 288 289 291 293 292 289 290 292 293 292 293 293 295 298 299 299 300 300 302 304 303 298 297 300 302 301 302 303 305 300 306 306 304 305 306 307 306 305 304 305 303
287 287 288 288 288 289 292 290 289 289 289 291 291 292 293 293 292 293 295 298 294 296 297 299 304 298 297 297 299 301 302 302 303 308 308 308 308 309 308 307 303 302 301 300 299
287 288 287 288 288 289 289 288 289 288 289 290 291 292 290 291 291 292 295 297 292 292 295 300 300 300 297 299 301 299 301 302 304 305 308 308 309 303 304 303 301 300 299 298 298
287 289 287 287 288 283 289 288 288 288 288 290 291 290 290 291 290 292 291 292 291 291 293 298 300 301 302 297 296 300 302 302 305 305 303 305 308 302 301 300 301 300 298 297 296
287 287 287 287 288 288 288 288 287 288 289 289 289 289 289 290 290 290 290 291 290 291 293 294 300 303 302 299 296 299 299 300 303 302 310 308 308 300 300 300 299 299 297 296 295
287 288 287 287 286 288 288 288 288 288 288 289 289 288 289 289 289 289 290 290 289 289 292 291 293 297 299 301 300 299 299 300 302 305 305 305 307 302 301 300 298 296 295 294 293
286 287 287 287 287 287 286 287 287 287 288 288 288 288 288 288 288 287 288 290 289 289 289 291 291 293 293 294 297 303 300 299 301 303 305 304 304 304 301 298 295 294 294 293 291
286 286 286 286 286 286 286 286 287 287 287 288 288 288 288 288 288 288 289 289 288 289 289 290 291 291 295 294 297 298 300 305 303 300 302 305 307 298 296 294 293 292 292 291 290
287 287 286 286 286 286 286 286 286 286 287 287 288 288 288 288 288 288 288 288 289 289 289 289 290 292 293 293 295 298 300 301 305 303 304 302 302 300 295 293 291 290 289 288 286

GFSSW_850_thetae_291.txt.gz
Theta_e
305 304 306 308 309 309 310 311 311 308 306 306 306 304 303 302 302 301 302 304 303 303 303 302 303 307 306 309 311 314 321 328 332 334 334 332 333 331 332 333 332 331 332 330 329
310 310 310 310 311 312 312 313 313 314 313 312 312 312 312 309 304 303 304 304 303 302 301 304 306 306 306 307 309 312 314 318 321 324 326 326 326 329 331 331 330 331 329 325 325
313 314 314 314 314 314 314 314 314 314 314 314 314 314 314 309 305 304 303 303 303 302 301 304 305 305 306 307 308 311 313 314 315 315 316 317 320 323 328 331 330 331 330 328 325
310 310 311 312 313 314 314 314 314 314 314 314 314 315 314 307 310 304 303 304 303 302 301 304 305 306 308 309 308 309 310 311 313 313 312 315 317 320 322 327 327 328 329 329 324
298 298 299 300 302 304 307 310 314 314 314 314 314 314 314 306 307 311 310 305 302 302 303 305 305 306 308 309 308 309 309 309 309 309 310 311 313 315 316 320 322 322 323 324 322
297 298 298 298 299 299 299 299 299 304 312 314 314 314 310 307 313 311 310 304 301 301 303 304 305 306 306 308 309 309 310 311 310 309 310 311 312 311 312 313 315 316 316 316 316
297 297 297 297 298 299 299 299 299 299 299 307 313 312 307 310 314 313 309 305 301 300 303 303 304 305 307 308 308 309 310 311 310 311 312 312 313 314 313 312 313 314 315 315 315
295 294 294 295 296 298 298 299 299 298 298 300 309 309 308 308 311 311 307 302 300 300 301 303 303 304 305 307 308 310 310 311 312 312 311 312 313 315 316 316 315 314 315 317 317
291 291 292 292 294 296 297 297 298 298 300 303 306 307 307 306 308 307 302 300 299 299 300 300 303 304 305 307 307 308 308 310 311 313 313 313 314 314 316 316 317 316 317 316 316
289 289 290 290 293 294 296 298 300 304 306 306 303 304 304 305 303 303 300 299 300 300 300 301 302 305 306 308 308 308 308 309 310 311 312 312 313 312 312 313 313 313 314 314 315
289 289 290 290 292 292 294 298 300 305 301 306 307 303 305 303 301 299 298 299 300 301 303 302 303 307 307 307 307 308 308 308 309 310 309 310 311 311 311 311 313 312 312 312 313
289 289 289 290 292 292 295 297 294 293 295 298 300 301 302 303 304 306 301 301 302 305 306 306 305 309 310 309 307 307 308 309 309 308 308 308 308 309 309 310 310 310 310 310 310
290 289 288 290 291 293 295 293 293 294 297 300 302 303 301 302 306 306 304 305 308 308 310 309 310 310 309 310 307 308 309 310 310 310 308 307 308 310 309 310 309 309 309 309 309
289 289 288 289 292 293 293 291 292 295 300 303 304 297 295 296 305 301 303 306 306 306 307 308 310 309 311 309 309 308 309 309 309 308 308 308 308 311 311 310 311 311 310 309 309
288 288 288 288 292 290 291 291 292 296 304 300 297 295 294 296 298 301 299 303 306 307 305 309 307 306 307 311 307 307 307 308 307 307 308 308 305 310 310 309 310 310 310 309 309
288 288 288 290 290 288 289 292 297 301 304 294 293 293 294 297 298 298 298 300 302 302 304 307 305 303 306 308 308 306 305 303 304 305 309 308 309 311 312 314 314 313 310 309 309
287 288 288 290 289 288 290 296 301 299 292 293 292 292 293 295 295 296 298 301 302 306 307 307 308 304 300 302 302 306 305 308 308 307 308 310 309 310 312 310 310 310 310 309 307
287 288 289 288 288 289 294 297 296 291 290 290 290 291 292 294 293 293 294 297 299 298 302 304 309 308 305 302 305 303 306 312 313 315 312 310 307 311 311 310 310 308 307 306 307
287 288 288 288 288 290 293 292 288 289 290 290 290 290 293 291 292 292 293 296 295 294 292 298 302 303 301 301 303 305 304 306 308 308 307 310 307 309 309 308 308 307 307 305 303
288 290 287 287 288 291 293 290 290 290 289 290 289 290 291 291 291 291 292 294 293 291 291 295 298 301 300 299 300 302 303 304 305 307 310 310 311 312 312 310 306 304 303 302 301
289 290 287 288 289 290 290 289 289 289 289 290 290 290 290 290 290 291 292 292 293 291 291 294 295 298 300 300 302 301 302 304 306 306 310 311 312 305 306 305 304 302 301 300 299
290 291 287 288 291 289 290 289 288 289 289 290 289 289 289 289 290 290 290 290 289 291 290 292 293 296 296 301 298 299 301 303 306 306 306 308 311 304 304 303 303 301 299 298 298
289 289 288 288 289 289 288 288 288 289 289 289 289 289 289 288 288 289 289 289 289 291 290 291 291 293 294 301 296 298 298 302 302 304 307 309 307 303 303 302 301 300 298 297 296
289 290 289 289 288 288 287 287 288 288 288 288 289 288 289 289 289 288 288 289 289 289 290 290 290 290 292 293 293 294 297 298 302 303 304 305 306 305 303 302 300 298 297 295 294
288 288 286 289 288 288 287 287 287 288 288 287 288 288 289 289 289 289 289 289 289 289 289 289 288 289 291 291 291 294 297 297 298 304 303 304 305 307 305 301 297 296 295 293 291
288 287 287 287 287 287 287 287 287 287 287 288 288 288 289 289 289 290 289 288 288 290 289 289 289 289 288 290 293 294 296 297 299 299 303 302 303 300 298 297 295 293 292 290 288
287 287 287 288 288 288 288 287 287 287 287 287 288 289 289 289 288 288 288 288 289 289 289 289 289 289 290 291 292 293 296 297 297 294 295 301 298 296 297 292 291 290 289 287 286